EW0791 Weather Reports


time (UTC)temp
C
wind
direction
speed
KPH
gust
KPH
rain 1hr
cm
rain 24hr
cm
rain mn
cm
humidity
%
barometer
mb
20260504223326 22 294 8.0 27.4 0.00 0.00 0.00 34 1007.0
20260504221822 21 225 6.4 22.5 0.00 0.00 0.00 35 1006.9
20260504220319 22 206 8.0 16.1 0.00 0.00 0.00 34 1006.9
20260504214835 22 130 9.7 32.2 0.00 0.00 0.00 34 1006.9
20260504213350 22 194 8.0 24.1 0.00 0.00 0.00 33 1006.9
20260504211827 22 109 9.7 20.9 0.00 0.00 0.00 33 1006.8
20260504210323 22 258 4.8 27.4 0.00 0.00 0.00 34 1006.8
20260504204853 22 291 9.7 22.5 0.00 0.00 0.00 33 1006.9
20260504203325 22 245 9.7 17.7 0.00 0.00 0.00 32 1006.9
20260504201828 23 225 12.9 24.1 0.00 0.00 0.00 31 1006.7
20260504200323 22 198 6.4 32.2 0.00 0.00 0.00 32 1006.8
20260504194826 22 257 9.7 24.1 0.00 0.00 0.00 31 1006.8
20260504193320 22 279 8.0 19.3 0.00 0.00 0.00 32 1007.0
20260504191846 22 128 9.7 25.7 0.00 0.00 0.00 31 1007.0
20260504190321 22 261 8.0 32.2 0.00 0.00 0.00 33 1007.1
20260504184824 21 294 4.8 24.1 0.00 0.00 0.00 32 1007.1
20260504183336 21 30 14.5 32.2 0.00 0.00 0.00 31 1007.4
20260504181854 21 272 14.5 24.1 0.00 0.00 0.00 32 1007.6
20260504180327 21 215 14.5 33.8 0.00 0.00 0.00 31 1007.6
20260504174820 21 203 9.7 24.1 0.00 0.00 0.00 32 1007.6
20260504173318 21 246 14.5 29.0 0.00 0.00 0.00 33 1007.9
20260504171832 20 233 12.9 22.5 0.00 0.00 0.00 33 1007.8
20260504170325 20 308 8.0 25.7 0.00 0.00 0.00 34 1008.1
20260504160329 19 178 9.7 25.7 0.00 0.00 0.00 36 1008.5
20260504150325 18 245 14.5 29.0 0.00 0.00 0.00 38 1009.2
20260504140325 16 255 8.0 20.9 0.00 0.00 0.00 43 1009.8
20260504130340 14 250 8.0 19.3 0.00 0.00 0.00 47 1010.4
20260504110321 8 226 3.2 16.1 0.00 0.15 0.00 61 1010.6
20260504100329 7 204 1.6 4.8 0.00 0.15 0.00 63 1011.0
20260504081824 6 143 0.0 1.6 0.00 0.15 0.00 65 1010.9
20260504080331 6 206 1.6 6.4 0.00 0.15 0.00 65 1010.7
20260504070321 6 212 1.6 3.2 0.00 0.15 0.00 64 1010.7
20260504050342 3 237 1.6 4.8 0.00 0.15 0.00 72 1010.8
20260504044828 3 165 0.0 4.8 0.00 0.15 0.00 73 1010.9
20260504043321 3 213 1.6 3.2 0.00 0.15 0.00 73 1010.8
20260504041830 3 167 0.0 3.2 0.00 0.15 0.00 72 1010.9
20260504040324 3 274 1.6 3.2 0.00 0.15 0.00 72 1010.8
20260504034829 4 212 1.6 4.8 0.00 0.15 0.15 71 1010.7
20260504033323 3 201 1.6 3.2 0.00 0.15 0.15 74 1010.7
20260504031831 4 201 0.0 0.0 0.00 0.15 0.15 71 1010.5
20260504030327 4 224 0.0 3.2 0.00 0.15 0.15 70 1010.6
20260504024841 4 229 0.0 3.2 0.00 0.15 0.15 72 1010.5
20260504023319 4 229 0.0 1.6 0.00 0.15 0.15 71 1010.4
20260504021820 4 214 0.0 1.6 0.00 0.15 0.15 72 1010.5
20260504020323 4 214 0.0 3.2 0.00 0.15 0.15 72 1010.4
20260504014816 5 217 0.0 1.6 0.00 0.15 0.15 70 1010.3
20260504013316 5 217 0.0 1.6 0.00 0.15 0.15 68 1010.0
20260504011834 6 217 0.0 1.6 0.00 0.15 0.15 65 1009.9
20260504010348 6 217 0.0 0.0 0.00 0.15 0.15 62 1009.8
20260504004822 6 217 0.0 0.0 0.00 0.18 0.15 57 1009.6
20260504003329 7 217 0.0 0.0 0.00 0.18 0.15 55 1009.5
20260504001848 8 254 0.0 0.0 0.00 0.18 0.15 53 1009.4
20260504000346 10 270 0.0 3.2 0.00 0.18 0.15 49 1009.2
20260503234831 10 281 1.6 8.0 0.00 0.18 0.15 46 1009.1
20260503233348 10 279 3.2 6.4 0.00 0.18 0.15 45 1009.0
20260503231823 11 272 3.2 16.1 0.00 0.18 0.15 44 1008.9
20260503230338 11 304 3.2 12.9 0.00 0.18 0.15 43 1008.7
20260503224821 11 319 4.8 17.7 0.00 0.18 0.15 43 1008.6